Find Starlink 38331

NORAD ID: 100459 Int'l Des: 2026-193 Owner: SPXS Country: US Constellation: starlink operational

当前视图

正在加载3D地球...

About Starlink 38331

Starlink 38331 (NORAD 100459) is a starlink constellation satellite launched Aug 22, 2026 by SPXS of US. with a mass of 575.00 kg.

即将过境

Passes for default location (London). Set your location on the main map for personalized predictions.

高度历史

Loading altitude history...

两行轨道根数

1 A0459U 26193AC 26251.65587201 -.00934129 00000-0 -70073-2 0 9998
2 A0459 69.9985 107.2968 0005126 276.1232 83.9382 15.74901824 3845
Epoch: Sep 8, 2026 • Age: 3 hours

当前状态

高度 355.1 km
远地点 / 近地点 N/A
速度 7.70 km/s
星下点 48.02°N, 142.38°W
发射日期 Aug 22, 2026
运行时间 17 days
类型 internet

技术详情

分类 Payload
质量 575.00 kg
干质量 530.00 kg
总质量 575.00 kg
长度 0.30 m
直径 4.10 m
跨度 29.00 m
形状 Box + pan
制造商 SPXS
平台类型 Starlink V2MO
阶段状态 In Orbit
所有者/国家 SPXS/US

Most Searched